Wetterdaten: Donnerstag, 19.01.2017
Datum Zeit Temp. Auen Feucht Auen Luftdruck Regen Richtung Richtung Windben
19.01.2017 00:00 -5,6 C 89 % 1035,6 hPa 0,0 mm O-SO 109 8,0 km/h (2 Bft)
19.01.2017 00:05 -5,6 C 89 % 1035,6 hPa 0,0 mm O-SO 120 6,4 km/h (2 Bft)
19.01.2017 00:10 -5,6 C 89 % 1035,6 hPa 0,0 mm SO 124 6,4 km/h (2 Bft)
19.01.2017 00:15 -5,7 C 89 % 1035,5 hPa 0,0 mm O-SO 104 6,4 km/h (2 Bft)
19.01.2017 00:20 -5,7 C 89 % 1035,5 hPa 0,0 mm O-SO 121 6,4 km/h (2 Bft)
19.01.2017 00:25 -5,7 C 89 % 1035,5 hPa 0,0 mm O 101 6,4 km/h (2 Bft)
19.01.2017 00:30 -5,7 C 89 % 1035,4 hPa 0,0 mm O-SO 123 6,4 km/h (2 Bft)
19.01.2017 00:35 -5,7 C 89 % 1035,5 hPa 0,0 mm O-SO 111 8,0 km/h (2 Bft)
19.01.2017 00:40 -5,7 C 89 % 1035,5 hPa 0,0 mm O-SO 111 8,0 km/h (2 Bft)
19.01.2017 00:45 -5,7 C 89 % 1035,4 hPa 0,0 mm O-NO 73 22,5 km/h (4 Bft)
19.01.2017 00:50 -5,6 C 89 % 1035,4 hPa 0,0 mm O 94 12,9 km/h (3 Bft)
19.01.2017 00:55 -5,6 C 89 % 1035,4 hPa 0,0 mm O-SO 104 12,9 km/h (3 Bft)
19.01.2017 01:00 -5,6 C 89 % 1035,4 hPa 0,0 mm O 98 14,5 km/h (3 Bft)
19.01.2017 01:05 -5,6 C 89 % 1035,4 hPa 0,0 mm O 88 11,3 km/h (2 Bft)
19.01.2017 01:10 -5,6 C 89 % 1035,4 hPa 0,0 mm O 93 12,9 km/h (3 Bft)
19.01.2017 01:15 -5,7 C 89 % 1035,4 hPa 0,0 mm O 83 11,3 km/h (2 Bft)
19.01.2017 01:20 -5,7 C 89 % 1035,5 hPa 0,0 mm O 94 11,3 km/h (2 Bft)
19.01.2017 01:25 -5,8 C 89 % 1035,5 hPa 0,0 mm O 94 11,3 km/h (2 Bft)
19.01.2017 01:30 -5,9 C 89 % 1035,4 hPa 0,0 mm O 99 11,3 km/h (2 Bft)
19.01.2017 01:35 -5,9 C 89 % 1035,4 hPa 0,0 mm O-SO 106 12,9 km/h (3 Bft)
19.01.2017 01:40 -5,9 C 89 % 1035,5 hPa 0,0 mm O 97 12,9 km/h (3 Bft)
19.01.2017 01:45 -5,9 C 89 % 1035,4 hPa 0,0 mm O 92 12,9 km/h (3 Bft)
19.01.2017 01:50 -5,9 C 89 % 1035,5 hPa 0,0 mm O 93 12,9 km/h (3 Bft)
19.01.2017 01:55 -5,9 C 89 % 1035,5 hPa 0,0 mm O 90 12,9 km/h (3 Bft)
19.01.2017 02:00 -6,0 C 89 % 1035,6 hPa 0,0 mm O 94 14,5 km/h (3 Bft)
19.01.2017 02:05 -6,0 C 89 % 1035,6 hPa 0,0 mm O 96 12,9 km/h (3 Bft)
19.01.2017 02:10 -6,1 C 89 % 1035,5 hPa 0,0 mm O 96 11,3 km/h (2 Bft)
19.01.2017 02:15 -6,2 C 89 % 1035,5 hPa 0,0 mm O 98 14,5 km/h (3 Bft)
19.01.2017 02:20 -6,4 C 88 % 1035,5 hPa 0,0 mm O-SO 103 9,7 km/h (2 Bft)
19.01.2017 02:25 -6,4 C 89 % 1035,5 hPa 0,0 mm SO 139 9,7 km/h (2 Bft)
19.01.2017 02:30 -6,5 C 89 % 1035,6 hPa 0,0 mm O-SO 109 8,0 km/h (2 Bft)
19.01.2017 02:35 -6,5 C 89 % 1035,6 hPa 0,0 mm O 95 8,0 km/h (2 Bft)
19.01.2017 02:40 -6,5 C 89 % 1035,5 hPa 0,0 mm SO 126 12,9 km/h (3 Bft)
19.01.2017 02:45 -6,6 C 89 % 1035,6 hPa 0,0 mm O-SO 123 9,7 km/h (2 Bft)
19.01.2017 02:50 -6,6 C 89 % 1035,6 hPa 0,0 mm O-SO 115 14,5 km/h (3 Bft)
19.01.2017 02:55 -6,7 C 90 % 1035,5 hPa 0,0 mm O-SO 113 11,3 km/h (2 Bft)
19.01.2017 03:00 -6,8 C 89 % 1035,5 hPa 0,0 mm O-SO 111 9,7 km/h (2 Bft)
19.01.2017 03:05 -6,9 C 89 % 1035,5 hPa 0,0 mm O-SO 114 11,3 km/h (2 Bft)
19.01.2017 03:10 -7,0 C 90 % 1035,5 hPa 0,0 mm O 100 11,3 km/h (2 Bft)
19.01.2017 03:15 -7,2 C 89 % 1035,6 hPa 0,0 mm O-SO 106 6,4 km/h (2 Bft)
19.01.2017 03:20 -7,3 C 90 % 1035,6 hPa 0,0 mm O-SO 110 4,8 km/h (1 Bft)
19.01.2017 03:25 -7,4 C 90 % 1035,6 hPa 0,0 mm O-SO 116 4,8 km/h (1 Bft)
19.01.2017 03:30 -7,4 C 90 % 1035,6 hPa 0,0 mm S-SO 150 4,8 km/h (1 Bft)
19.01.2017 03:35 -7,5 C 90 % 1035,6 hPa 0,0 mm SO 131 4,8 km/h (1 Bft)
19.01.2017 03:40 -7,5 C 90 % 1035,6 hPa 0,0 mm O-SO 116 4,8 km/h (1 Bft)
19.01.2017 03:45 -7,5 C 90 % 1035,6 hPa 0,0 mm O-SO 107 8,0 km/h (2 Bft)
19.01.2017 03:50 -7,4 C 91 % 1035,6 hPa 0,0 mm O-SO 115 11,3 km/h (2 Bft)
19.01.2017 03:55 -7,3 C 91 % 1035,7 hPa 0,0 mm O-SO 114 8,0 km/h (2 Bft)
19.01.2017 04:00 -7,3 C 91 % 1035,7 hPa 0,0 mm SO 138 6,4 km/h (2 Bft)
19.01.2017 04:05 -7,2 C 91 % 1035,6 hPa 0,0 mm SO 128 6,4 km/h (2 Bft)
19.01.2017 04:10 -7,2 C 91 % 1035,6 hPa 0,0 mm SO 132 8,0 km/h (2 Bft)
19.01.2017 04:15 -7,2 C 91 % 1035,6 hPa 0,0 mm O-SO 123 6,4 km/h (2 Bft)
19.01.2017 04:20 -7,2 C 92 % 1035,5 hPa 0,0 mm O 98 8,0 km/h (2 Bft)
19.01.2017 04:25 -7,1 C 92 % 1035,6 hPa 0,0 mm O-SO 107 11,3 km/h (2 Bft)
19.01.2017 04:30 -7,1 C 92 % 1035,6 hPa 0,0 mm O-NO 61 11,3 km/h (2 Bft)
19.01.2017 04:35 -7,1 C 92 % 1035,6 hPa 0,0 mm SO 134 8,0 km/h (2 Bft)
19.01.2017 04:40 -7,1 C 92 % 1035,6 hPa 0,0 mm O-SO 123 9,7 km/h (2 Bft)
19.01.2017 04:45 -7,1 C 92 % 1035,5 hPa 0,0 mm O-SO 107 12,9 km/h (3 Bft)
19.01.2017 04:50 -7,0 C 92 % 1035,5 hPa 0,0 mm O-SO 108 12,9 km/h (3 Bft)
19.01.2017 04:55 -7,0 C 92 % 1035,5 hPa 0,0 mm O 85 12,9 km/h (3 Bft)
19.01.2017 05:00 -7,0 C 92 % 1035,5 hPa 0,0 mm O 97 14,5 km/h (3 Bft)
19.01.2017 05:05 -7,0 C 92 % 1035,5 hPa 0,0 mm O-NO 75 11,3 km/h (2 Bft)
19.01.2017 05:10 -7,0 C 92 % 1035,5 hPa 0,0 mm O-NO 72 14,5 km/h (3 Bft)
19.01.2017 05:15 -7,1 C 92 % 1035,5 hPa 0,0 mm O-SO 103 12,9 km/h (3 Bft)
19.01.2017 05:20 -7,1 C 92 % 1035,5 hPa 0,0 mm O 92 12,9 km/h (3 Bft)
19.01.2017 05:25 -7,1 C 92 % 1035,5 hPa 0,0 mm O 91 14,5 km/h (3 Bft)
19.01.2017 05:30 -7,2 C 92 % 1035,4 hPa 0,0 mm O 94 12,9 km/h (3 Bft)
19.01.2017 05:35 -7,2 C 92 % 1035,4 hPa 0,0 mm O-SO 105 17,7 km/h (3 Bft)
19.01.2017 05:40 -7,2 C 92 % 1035,4 hPa 0,0 mm O 86 16,1 km/h (3 Bft)
19.01.2017 05:45 -7,2 C 92 % 1035,4 hPa 0,0 mm O-SO 102 16,1 km/h (3 Bft)
19.01.2017 05:50 -7,2 C 92 % 1035,3 hPa 0,0 mm O-SO 114 16,1 km/h (3 Bft)
19.01.2017 05:55 -7,2 C 92 % 1035,3 hPa 0,0 mm O 91 16,1 km/h (3 Bft)
19.01.2017 06:00 -7,2 C 92 % 1035,4 hPa 0,0 mm O 100 16,1 km/h (3 Bft)
19.01.2017 06:05 -7,3 C 92 % 1035,4 hPa 0,0 mm O-SO 103 17,7 km/h (3 Bft)
19.01.2017 06:10 -7,3 C 92 % 1035,5 hPa 0,0 mm O 101 14,5 km/h (3 Bft)
19.01.2017 06:15 -7,4 C 92 % 1035,6 hPa 0,0 mm O-SO 116 11,3 km/h (2 Bft)
19.01.2017 06:20 -7,4 C 92 % 1035,6 hPa 0,0 mm O 92 12,9 km/h (3 Bft)
19.01.2017 06:25 -7,5 C 92 % 1035,6 hPa 0,0 mm O 99 12,9 km/h (3 Bft)
19.01.2017 06:30 -7,6 C 92 % 1035,6 hPa 0,0 mm O 92 12,9 km/h (3 Bft)
19.01.2017 06:35 -7,6 C 92 % 1035,5 hPa 0,0 mm O 86 12,9 km/h (3 Bft)
19.01.2017 06:40 -7,6 C 92 % 1035,5 hPa 0,0 mm O 94 14,5 km/h (3 Bft)
19.01.2017 06:45 -7,6 C 92 % 1035,6 hPa 0,0 mm O 96 12,9 km/h (3 Bft)
19.01.2017 06:50 -7,6 C 92 % 1035,6 hPa 0,0 mm O 92 12,9 km/h (3 Bft)
19.01.2017 06:55 -7,6 C 92 % 1035,7 hPa 0,0 mm O 98 14,5 km/h (3 Bft)
19.01.2017 07:00 -7,6 C 92 % 1035,7 hPa 0,0 mm O-SO 107 12,9 km/h (3 Bft)
19.01.2017 07:05 -7,6 C 92 % 1035,7 hPa 0,0 mm O 96 11,3 km/h (2 Bft)
19.01.2017 07:10 -7,7 C 92 % 1035,7 hPa 0,0 mm O-SO 121 11,3 km/h (2 Bft)
19.01.2017 07:15 -7,7 C 92 % 1035,7 hPa 0,0 mm SO 130 11,3 km/h (2 Bft)
19.01.2017 07:20 -7,7 C 92 % 1035,7 hPa 0,0 mm SO 137 8,0 km/h (2 Bft)
19.01.2017 07:25 -7,6 C 92 % 1035,7 hPa 0,0 mm O 84 9,7 km/h (2 Bft)
19.01.2017 07:30 -7,6 C 92 % 1035,7 hPa 0,0 mm NO 34 9,7 km/h (2 Bft)
19.01.2017 07:35 -7,6 C 92 % 1035,8 hPa 0,0 mm O-NO 65 14,5 km/h (3 Bft)
19.01.2017 07:40 -7,6 C 92 % 1035,8 hPa 0,0 mm O 96 12,9 km/h (3 Bft)
19.01.2017 07:45 -7,6 C 93 % 1035,9 hPa 0,0 mm O-SO 108 11,3 km/h (2 Bft)
19.01.2017 07:50 -7,6 C 93 % 1035,9 hPa 0,0 mm O 94 12,9 km/h (3 Bft)
19.01.2017 07:55 -7,6 C 93 % 1035,9 hPa 0,0 mm O 87 9,7 km/h (2 Bft)
19.01.2017 08:00 -7,6 C 93 % 1035,9 hPa 0,0 mm O-NO 60 12,9 km/h (3 Bft)
19.01.2017 08:05 -7,6 C 93 % 1036,0 hPa 0,0 mm O 82 12,9 km/h (3 Bft)
19.01.2017 08:10 -7,6 C 93 % 1036,1 hPa 0,0 mm O 82 12,9 km/h (3 Bft)
19.01.2017 08:15 -7,7 C 93 % 1036,1 hPa 0,0 mm O-NO 78 11,3 km/h (2 Bft)
19.01.2017 08:20 -7,7 C 93 % 1036,0 hPa 0,0 mm O 89 12,9 km/h (3 Bft)
19.01.2017 08:25 -7,7 C 93 % 1036,1 hPa 0,0 mm O 79 12,9 km/h (3 Bft)
19.01.2017 08:30 -7,7 C 93 % 1036,1 hPa 0,0 mm O-NO 71 12,9 km/h (3 Bft)
19.01.2017 08:35 -7,7 C 93 % 1036,2 hPa 0,0 mm O-SO 102 11,3 km/h (2 Bft)
19.01.2017 08:40 -7,7 C 93 % 1036,2 hPa 0,0 mm O 90 11,3 km/h (2 Bft)
19.01.2017 08:45 -7,6 C 93 % 1036,2 hPa 0,0 mm O 93 14,5 km/h (3 Bft)
19.01.2017 08:50 -7,6 C 93 % 1036,2 hPa 0,0 mm O 89 16,1 km/h (3 Bft)
19.01.2017 08:55 -7,7 C 93 % 1036,4 hPa 0,0 mm O 82 14,5 km/h (3 Bft)
19.01.2017 09:00 -7,7 C 93 % 1036,4 hPa 0,0 mm O 79 12,9 km/h (3 Bft)
19.01.2017 09:05 -7,7 C 93 % 1036,3 hPa 0,0 mm O 88 14,5 km/h (3 Bft)
19.01.2017 09:10 -7,7 C 93 % 1036,4 hPa 0,0 mm O-SO 111 16,1 km/h (3 Bft)
19.01.2017 09:15 -7,6 C 93 % 1036,4 hPa 0,0 mm O 98 12,9 km/h (3 Bft)
19.01.2017 09:20 -7,6 C 93 % 1036,3 hPa 0,0 mm O 87 14,5 km/h (3 Bft)
19.01.2017 09:25 -7,6 C 93 % 1036,4 hPa 0,0 mm O 87 12,9 km/h (3 Bft)
19.01.2017 09:30 -7,6 C 93 % 1036,4 hPa 0,0 mm O 91 14,5 km/h (3 Bft)
19.01.2017 09:35 -7,6 C 93 % 1036,4 hPa 0,0 mm O 80 14,5 km/h (3 Bft)
19.01.2017 09:40 -7,6 C 93 % 1036,4 hPa 0,0 mm O-SO 111 16,1 km/h (3 Bft)
19.01.2017 09:45 -7,6 C 93 % 1036,4 hPa 0,0 mm O 96 16,1 km/h (3 Bft)
19.01.2017 09:50 -7,5 C 93 % 1036,5 hPa 0,0 mm O-SO 107 12,9 km/h (3 Bft)
19.01.2017 09:55 -7,4 C 93 % 1036,5 hPa 0,0 mm O-SO 104 12,9 km/h (3 Bft)
19.01.2017 10:00 -7,4 C 93 % 1036,5 hPa 0,0 mm O-SO 109 11,3 km/h (2 Bft)
19.01.2017 10:05 -7,4 C 93 % 1036,4 hPa 0,0 mm O 93 14,5 km/h (3 Bft)
19.01.2017 10:10 -7,4 C 93 % 1036,4 hPa 0,0 mm O 99 14,5 km/h (3 Bft)
19.01.2017 10:15 -7,2 C 93 % 1036,5 hPa 0,0 mm O 82 14,5 km/h (3 Bft)
19.01.2017 10:20 -7,1 C 93 % 1036,4 hPa 0,0 mm O 98 17,7 km/h (3 Bft)
19.01.2017 10:25 -7,1 C 92 % 1036,5 hPa 0,0 mm O-SO 117 16,1 km/h (3 Bft)
19.01.2017 10:30 -7,0 C 92 % 1036,5 hPa 0,0 mm O-SO 103 17,7 km/h (3 Bft)
19.01.2017 10:35 -7,0 C 92 % 1036,4 hPa 0,0 mm O 99 20,9 km/h (4 Bft)
19.01.2017 10:40 -6,9 C 92 % 1036,4 hPa 0,0 mm O 88 16,1 km/h (3 Bft)
19.01.2017 10:45 -6,8 C 92 % 1036,4 hPa 0,0 mm O-SO 103 17,7 km/h (3 Bft)
19.01.2017 10:50 -6,8 C 92 % 1036,4 hPa 0,0 mm O-SO 103 16,1 km/h (3 Bft)
19.01.2017 10:55 -6,8 C 92 % 1036,4 hPa 0,0 mm O-NO 68 16,1 km/h (3 Bft)
19.01.2017 11:00 -6,8 C 92 % 1036,3 hPa 0,0 mm O 101 17,7 km/h (3 Bft)
19.01.2017 11:05 -6,8 C 92 % 1036,3 hPa 0,0 mm O 91 16,1 km/h (3 Bft)
19.01.2017 11:10 -6,7 C 92 % 1036,2 hPa 0,0 mm O-SO 103 16,1 km/h (3 Bft)
19.01.2017 11:15 -6,7 C 92 % 1036,2 hPa 0,0 mm O-SO 107 17,7 km/h (3 Bft)
19.01.2017 11:20 -6,5 C 92 % 1036,2 hPa 0,0 mm O-SO 102 14,5 km/h (3 Bft)
19.01.2017 11:25 -6,7 C 91 % 1036,1 hPa 0,0 mm O 84 17,7 km/h (3 Bft)
19.01.2017 11:30 -6,7 C 91 % 1036,1 hPa 0,0 mm O 90 16,1 km/h (3 Bft)
19.01.2017 11:35 -6,6 C 92 % 1036,0 hPa 0,0 mm O 90 16,1 km/h (3 Bft)
19.01.2017 11:40 -6,6 C 91 % 1036,0 hPa 0,0 mm O 98 16,1 km/h (3 Bft)
19.01.2017 11:45 -6,7 C 91 % 1035,9 hPa 0,0 mm O 92 16,1 km/h (3 Bft)
19.01.2017 11:50 -6,7 C 91 % 1035,9 hPa 0,0 mm O 86 14,5 km/h (3 Bft)
19.01.2017 11:55 -6,6 C 91 % 1035,9 hPa 0,0 mm O 96 14,5 km/h (3 Bft)
19.01.2017 12:00 -6,5 C 91 % 1035,8 hPa 0,0 mm O-NO 64 14,5 km/h (3 Bft)
19.01.2017 12:05 -6,4 C 91 % 1035,7 hPa 0,0 mm O 97 16,1 km/h (3 Bft)
19.01.2017 12:10 -6,3 C 91 % 1035,6 hPa 0,0 mm O-NO 76 16,1 km/h (3 Bft)
19.01.2017 12:15 -6,2 C 91 % 1035,6 hPa 0,0 mm O 94 17,7 km/h (3 Bft)
19.01.2017 12:20 -6,2 C 91 % 1035,6 hPa 0,0 mm O-NO 78 17,7 km/h (3 Bft)
19.01.2017 12:25 -6,2 C 91 % 1035,6 hPa 0,0 mm O 97 17,7 km/h (3 Bft)
19.01.2017 12:30 -6,2 C 91 % 1035,6 hPa 0,0 mm O-NO 74 16,1 km/h (3 Bft)
19.01.2017 12:35 -6,1 C 91 % 1035,4 hPa 0,0 mm O 84 17,7 km/h (3 Bft)
19.01.2017 12:40 -6,1 C 91 % 1035,4 hPa 0,0 mm O 94 17,7 km/h (3 Bft)
19.01.2017 12:45 -6,1 C 91 % 1035,4 hPa 0,0 mm O-NO 62 16,1 km/h (3 Bft)
19.01.2017 12:50 -6,0 C 91 % 1035,5 hPa 0,0 mm O 99 20,9 km/h (4 Bft)
19.01.2017 12:55 -6,1 C 91 % 1035,4 hPa 0,0 mm O 84 14,5 km/h (3 Bft)
19.01.2017 13:00 -6,1 C 91 % 1035,4 hPa 0,0 mm O-NO 76 16,1 km/h (3 Bft)
19.01.2017 13:05 -6,0 C 91 % 1035,4 hPa 0,0 mm O-SO 113 16,1 km/h (3 Bft)
19.01.2017 13:10 -6,1 C 91 % 1035,4 hPa 0,0 mm O 84 16,1 km/h (3 Bft)
19.01.2017 13:15 -6,0 C 91 % 1035,4 hPa 0,0 mm O-NO 65 17,7 km/h (3 Bft)
19.01.2017 13:20 -5,9 C 91 % 1035,4 hPa 0,0 mm O 80 16,1 km/h (3 Bft)
19.01.2017 13:25 -6,0 C 91 % 1035,3 hPa 0,0 mm O-NO 57 16,1 km/h (3 Bft)
19.01.2017 13:30 -6,0 C 91 % 1035,3 hPa 0,0 mm O 97 16,1 km/h (3 Bft)
19.01.2017 13:35 -5,9 C 91 % 1035,2 hPa 0,0 mm O-SO 118 14,5 km/h (3 Bft)
19.01.2017 13:40 -5,8 C 91 % 1035,2 hPa 0,0 mm O 88 14,5 km/h (3 Bft)
19.01.2017 13:45 -5,9 C 91 % 1035,2 hPa 0,0 mm O-NO 76 14,5 km/h (3 Bft)
19.01.2017 13:50 -5,9 C 91 % 1035,2 hPa 0,0 mm O-SO 107 12,9 km/h (3 Bft)
19.01.2017 13:55 -6,1 C 91 % 1035,2 hPa 0,0 mm O 98 11,3 km/h (2 Bft)
19.01.2017 14:00 -6,0 C 91 % 1035,2 hPa 0,0 mm O 82 14,5 km/h (3 Bft)
19.01.2017 14:05 -6,1 C 91 % 1035,2 hPa 0,0 mm O 82 11,3 km/h (2 Bft)
19.01.2017 14:10 -6,2 C 91 % 1035,1 hPa 0,0 mm O 80 12,9 km/h (3 Bft)
19.01.2017 14:15 -6,2 C 91 % 1035,1 hPa 0,0 mm O 87 11,3 km/h (2 Bft)
19.01.2017 14:20 -6,3 C 91 % 1035,0 hPa 0,0 mm O 80 11,3 km/h (2 Bft)
19.01.2017 14:25 -6,3 C 92 % 1035,1 hPa 0,0 mm O 91 11,3 km/h (2 Bft)
19.01.2017 14:30 -6,3 C 92 % 1035,1 hPa 0,0 mm O 96 14,5 km/h (3 Bft)
19.01.2017 14:35 -6,3 C 92 % 1035,1 hPa 0,0 mm O-NO 75 11,3 km/h (2 Bft)
19.01.2017 14:40 -6,5 C 92 % 1035,1 hPa 0,0 mm O-NO 68 11,3 km/h (2 Bft)
19.01.2017 14:45 -6,6 C 92 % 1035,2 hPa 0,0 mm O 81 12,9 km/h (3 Bft)
19.01.2017 14:50 -6,5 C 92 % 1035,2 hPa 0,0 mm O-NO 77 12,9 km/h (3 Bft)
19.01.2017 14:55 -6,4 C 92 % 1035,2 hPa 0,0 mm O 83 12,9 km/h (3 Bft)
19.01.2017 15:00 -6,4 C 92 % 1035,1 hPa 0,0 mm O-NO 63 12,9 km/h (3 Bft)
19.01.2017 15:05 -6,5 C 92 % 1035,1 hPa 0,0 mm O 88 11,3 km/h (2 Bft)
19.01.2017 15:10 -6,5 C 92 % 1035,1 hPa 0,0 mm O-NO 58 11,3 km/h (2 Bft)
19.01.2017 15:15 -6,6 C 92 % 1035,0 hPa 0,0 mm O 80 11,3 km/h (2 Bft)
19.01.2017 15:20 -6,8 C 92 % 1035,2 hPa 0,0 mm O-SO 114 8,0 km/h (2 Bft)
19.01.2017 15:25 -6,9 C 92 % 1035,1 hPa 0,0 mm O-SO 107 8,0 km/h (2 Bft)
19.01.2017 15:30 -6,8 C 92 % 1035,1 hPa 0,0 mm O 80 9,7 km/h (2 Bft)
19.01.2017 15:35 -7,0 C 92 % 1035,1 hPa 0,0 mm O 91 8,0 km/h (2 Bft)
19.01.2017 15:40 -7,1 C 92 % 1035,1 hPa 0,0 mm O 79 9,7 km/h (2 Bft)
19.01.2017 15:45 -7,2 C 92 % 1035,0 hPa 0,0 mm O 84 8,0 km/h (2 Bft)
19.01.2017 15:50 -7,3 C 92 % 1035,1 hPa 0,0 mm O 80 9,7 km/h (2 Bft)
19.01.2017 15:55 -7,2 C 92 % 1035,2 hPa 0,0 mm O-SO 114 12,9 km/h (3 Bft)
19.01.2017 16:00 -7,1 C 92 % 1035,2 hPa 0,0 mm O 93 9,7 km/h (2 Bft)
19.01.2017 16:05 -7,2 C 92 % 1035,2 hPa 0,0 mm O 82 11,3 km/h (2 Bft)
19.01.2017 16:10 -7,3 C 92 % 1035,2 hPa 0,0 mm O 95 11,3 km/h (2 Bft)
19.01.2017 16:15 -7,4 C 92 % 1035,2 hPa 0,0 mm O-NO 67 11,3 km/h (2 Bft)
19.01.2017 16:20 -7,7 C 92 % 1035,1 hPa 0,0 mm O-SO 111 9,7 km/h (2 Bft)
19.01.2017 16:25 -7,7 C 92 % 1035,1 hPa 0,0 mm O 96 11,3 km/h (2 Bft)
19.01.2017 16:30 -7,5 C 92 % 1035,2 hPa 0,0 mm O 93 11,3 km/h (2 Bft)
19.01.2017 16:35 -7,6 C 92 % 1035,2 hPa 0,0 mm O 82 9,7 km/h (2 Bft)
19.01.2017 16:40 -7,9 C 92 % 1035,2 hPa 0,0 mm O 85 9,7 km/h (2 Bft)
19.01.2017 16:45 -8,1 C 92 % 1035,2 hPa 0,0 mm O 95 9,7 km/h (2 Bft)
19.01.2017 16:50 -8,3 C 92 % 1035,2 hPa 0,0 mm O-NO 73 8,0 km/h (2 Bft)
19.01.2017 16:55 -8,4 C 92 % 1035,1 hPa 0,0 mm O-NO 76 6,4 km/h (2 Bft)
19.01.2017 17:00 -8,6 C 92 % 1035,2 hPa 0,0 mm O 95 12,9 km/h (3 Bft)
19.01.2017 17:05 -8,2 C 93 % 1035,2 hPa 0,0 mm O 101 16,1 km/h (3 Bft)
19.01.2017 17:10 -7,7 C 93 % 1035,2 hPa 0,0 mm O 94 16,1 km/h (3 Bft)
19.01.2017 17:15 -7,7 C 93 % 1035,3 hPa 0,0 mm O-SO 106 14,5 km/h (3 Bft)
19.01.2017 17:20 -7,6 C 93 % 1035,3 hPa 0,0 mm O 99 14,5 km/h (3 Bft)
19.01.2017 17:25 -7,6 C 93 % 1035,3 hPa 0,0 mm O 82 16,1 km/h (3 Bft)
19.01.2017 17:30 -7,3 C 93 % 1035,3 hPa 0,0 mm O 89 17,7 km/h (3 Bft)
19.01.2017 17:35 -7,2 C 93 % 1035,3 hPa 0,0 mm O-SO 109 14,5 km/h (3 Bft)
19.01.2017 17:40 -7,4 C 93 % 1035,3 hPa 0,0 mm O 93 11,3 km/h (2 Bft)
19.01.2017 17:45 -7,6 C 92 % 1035,3 hPa 0,0 mm O 86 12,9 km/h (3 Bft)
19.01.2017 17:50 -7,8 C 92 % 1035,4 hPa 0,0 mm O 92 12,9 km/h (3 Bft)
19.01.2017 17:55 -7,7 C 92 % 1035,4 hPa 0,0 mm O-SO 110 16,1 km/h (3 Bft)
19.01.2017 18:00 -7,6 C 92 % 1035,5 hPa 0,0 mm SO 142 12,9 km/h (3 Bft)
19.01.2017 18:05 -7,8 C 92 % 1035,6 hPa 0,0 mm S-SO 153 8,0 km/h (2 Bft)
19.01.2017 18:10 -7,9 C 92 % 1035,5 hPa 0,0 mm SO 144 6,4 km/h (2 Bft)
19.01.2017 18:15 -8,1 C 92 % 1035,5 hPa 0,0 mm SO 134 4,8 km/h (1 Bft)
19.01.2017 18:20 -8,2 C 92 % 1035,6 hPa 0,0 mm SO 137 8,0 km/h (2 Bft)
19.01.2017 18:25 -8,2 C 92 % 1035,6 hPa 0,0 mm O 95 8,0 km/h (2 Bft)
19.01.2017 18:30 -8,3 C 92 % 1035,6 hPa 0,0 mm O-SO 111 8,0 km/h (2 Bft)
19.01.2017 18:35 -8,3 C 92 % 1035,7 hPa 0,0 mm SO 130 8,0 km/h (2 Bft)
19.01.2017 18:40 -8,3 C 92 % 1035,6 hPa 0,0 mm O 96 9,7 km/h (2 Bft)
19.01.2017 18:45 -8,2 C 92 % 1035,6 hPa 0,0 mm O 98 12,9 km/h (3 Bft)
19.01.2017 18:50 -8,3 C 92 % 1035,7 hPa 0,0 mm O 98 12,9 km/h (3 Bft)
19.01.2017 18:55 -8,2 C 92 % 1035,6 hPa 0,0 mm O 82 12,9 km/h (3 Bft)
19.01.2017 19:00 -8,2 C 92 % 1035,6 hPa 0,0 mm O-NO 70 12,9 km/h (3 Bft)
19.01.2017 19:05 -7,8 C 93 % 1035,7 hPa 0,0 mm O 88 12,9 km/h (3 Bft)
19.01.2017 19:10 -7,9 C 92 % 1035,7 hPa 0,0 mm O-SO 107 11,3 km/h (2 Bft)
19.01.2017 19:15 -8,0 C 92 % 1035,6 hPa 0,0 mm O-SO 105 11,3 km/h (2 Bft)
19.01.2017 19:20 -8,2 C 92 % 1035,8 hPa 0,0 mm SO 141 8,0 km/h (2 Bft)
19.01.2017 19:25 -8,2 C 92 % 1035,8 hPa 0,0 mm SO 136 8,0 km/h (2 Bft)
19.01.2017 19:30 -8,3 C 92 % 1035,8 hPa 0,0 mm SO 130 8,0 km/h (2 Bft)
19.01.2017 19:35 -8,3 C 92 % 1035,8 hPa 0,0 mm SO 137 8,0 km/h (2 Bft)
19.01.2017 19:40 -8,2 C 92 % 1035,9 hPa 0,0 mm S-SO 161 11,3 km/h (2 Bft)
19.01.2017 19:45 -8,1 C 92 % 1035,8 hPa 0,0 mm SO 144 8,0 km/h (2 Bft)
19.01.2017 19:50 -8,1 C 92 % 1035,9 hPa 0,0 mm S-SO 167 6,4 km/h (2 Bft)
19.01.2017 19:55 -8,1 C 92 % 1035,9 hPa 0,0 mm SO 135 4,8 km/h (1 Bft)
19.01.2017 20:00 -8,1 C 92 % 1035,9 hPa 0,0 mm SO 134 4,8 km/h (1 Bft)
19.01.2017 20:05 -8,1 C 92 % 1035,8 hPa 0,0 mm S-SO 154 8,0 km/h (2 Bft)
19.01.2017 20:10 -8,1 C 92 % 1035,9 hPa 0,0 mm SO 132 8,0 km/h (2 Bft)
19.01.2017 20:15 -8,0 C 92 % 1035,9 hPa 0,0 mm O-SO 120 9,7 km/h (2 Bft)
19.01.2017 20:20 -7,9 C 93 % 1035,9 hPa 0,0 mm O 86 11,3 km/h (2 Bft)
19.01.2017 20:25 -7,8 C 92 % 1036,0 hPa 0,0 mm O 98 11,3 km/h (2 Bft)
19.01.2017 20:30 -7,8 C 92 % 1035,9 hPa 0,0 mm O 101 12,9 km/h (3 Bft)
19.01.2017 20:35 -7,8 C 92 % 1036,1 hPa 0,0 mm O 81 12,9 km/h (3 Bft)
19.01.2017 20:40 -7,9 C 92 % 1036,1 hPa 0,0 mm O-SO 111 8,0 km/h (2 Bft)
19.01.2017 20:45 -7,9 C 92 % 1036,1 hPa 0,0 mm SO 146 6,4 km/h (2 Bft)
19.01.2017 20:50 -7,8 C 92 % 1036,1 hPa 0,0 mm O-SO 123 14,5 km/h (3 Bft)
19.01.2017 20:55 -7,7 C 92 % 1036,1 hPa 0,0 mm O-SO 120 8,0 km/h (2 Bft)
19.01.2017 21:00 -7,7 C 92 % 1036,2 hPa 0,0 mm S-SO 150 6,4 km/h (2 Bft)
19.01.2017 21:05 -7,8 C 92 % 1036,2 hPa 0,0 mm SO 139 9,7 km/h (2 Bft)
19.01.2017 21:10 -7,8 C 92 % 1036,0 hPa 0,0 mm O-SO 113 8,0 km/h (2 Bft)
19.01.2017 21:15 -7,8 C 92 % 1036,2 hPa 0,0 mm O-SO 123 8,0 km/h (2 Bft)
19.01.2017 21:20 -7,8 C 92 % 1036,2 hPa 0,0 mm SO 124 9,7 km/h (2 Bft)
19.01.2017 21:25 -7,8 C 92 % 1036,2 hPa 0,0 mm O-SO 117 8,0 km/h (2 Bft)
19.01.2017 21:30 -7,8 C 92 % 1036,2 hPa 0,0 mm SO 129 8,0 km/h (2 Bft)
19.01.2017 21:35 -7,8 C 92 % 1036,3 hPa 0,0 mm O 94 11,3 km/h (2 Bft)
19.01.2017 21:40 -7,8 C 92 % 1036,1 hPa 0,0 mm O-SO 109 12,9 km/h (3 Bft)
19.01.2017 21:45 -7,8 C 92 % 1036,1 hPa 0,0 mm O-SO 118 11,3 km/h (2 Bft)
19.01.2017 21:50 -7,8 C 92 % 1036,0 hPa 0,0 mm O-SO 107 6,4 km/h (2 Bft)
19.01.2017 21:55 -7,8 C 92 % 1036,0 hPa 0,0 mm SO 138 4,8 km/h (1 Bft)
19.01.2017 22:00 -7,8 C 92 % 1036,1 hPa 0,0 mm O-SO 121 6,4 km/h (2 Bft)
19.01.2017 22:05 -7,9 C 92 % 1036,1 hPa 0,0 mm O-SO 112 8,0 km/h (2 Bft)
19.01.2017 22:10 -8,0 C 92 % 1036,1 hPa 0,0 mm S-SO 155 8,0 km/h (2 Bft)
19.01.2017 22:15 -7,9 C 92 % 1036,1 hPa 0,0 mm O-SO 114 8,0 km/h (2 Bft)
19.01.2017 22:20 -7,9 C 92 % 1036,1 hPa 0,0 mm SO 140 8,0 km/h (2 Bft)
19.01.2017 22:25 -7,9 C 92 % 1036,1 hPa 0,0 mm O 96 9,7 km/h (2 Bft)
19.01.2017 22:30 -7,8 C 92 % 1036,2 hPa 0,0 mm O 92 11,3 km/h (2 Bft)
19.01.2017 22:35 -7,7 C 92 % 1036,2 hPa 0,0 mm O-SO 115 11,3 km/h (2 Bft)
19.01.2017 22:40 -7,7 C 92 % 1036,2 hPa 0,0 mm O-SO 111 11,3 km/h (2 Bft)
19.01.2017 22:45 -7,7 C 92 % 1036,2 hPa 0,0 mm O-SO 111 9,7 km/h (2 Bft)
19.01.2017 22:50 -7,7 C 92 % 1036,2 hPa 0,0 mm O 91 11,3 km/h (2 Bft)
19.01.2017 22:55 -7,7 C 92 % 1036,1 hPa 0,0 mm O 95 11,3 km/h (2 Bft)
19.01.2017 23:00 -7,7 C 92 % 1036,1 hPa 0,0 mm O-SO 116 11,3 km/h (2 Bft)
19.01.2017 23:05 -7,8 C 92 % 1036,0 hPa 0,0 mm O-SO 115 12,9 km/h (3 Bft)
19.01.2017 23:10 -7,8 C 92 % 1036,0 hPa 0,0 mm O-SO 121 12,9 km/h (3 Bft)
19.01.2017 23:15 -7,8 C 92 % 1036,0 hPa 0,0 mm O-SO 105 11,3 km/h (2 Bft)
19.01.2017 23:20 -7,6 C 92 % 1036,1 hPa 0,0 mm O-SO 114 12,9 km/h (3 Bft)
19.01.2017 23:25 -7,4 C 93 % 1036,1 hPa 0,0 mm O-SO 120 14,5 km/h (3 Bft)
19.01.2017 23:30 -7,4 C 92 % 1036,1 hPa 0,0 mm SO 135 11,3 km/h (2 Bft)
19.01.2017 23:35 -7,4 C 92 % 1036,1 hPa 0,0 mm O-SO 109 11,3 km/h (2 Bft)
19.01.2017 23:40 -7,4 C 92 % 1036,1 hPa 0,0 mm O 90 11,3 km/h (2 Bft)
19.01.2017 23:45 -7,4 C 92 % 1036,0 hPa 0,0 mm SO 126 12,9 km/h (3 Bft)
19.01.2017 23:50 -7,4 C 92 % 1036,0 hPa 0,0 mm SO 143 11,3 km/h (2 Bft)
19.01.2017 23:55 -7,6 C 92 % 1036,0 hPa 0,0 mm O-SO 117 6,4 km/h (2 Bft)
_ Min-Zeit 17:00 02:20 14:20 - - - 03:20
Minimum _ -8,6 C 88 % 1035,0 hPa - - - 4,8 km/h (1 Bft)
_ Max-Zeit 00:00 07:45 09:50 00:00 - - 00:45
Maximum _ -5,5 C 93 % 1036,5 hPa 0,0 mm - - 22,5 km/h
O-SO (4 Bft)
Durchschnitt _ -7,1 C 92 % 1035,7 hPa #0,0 mm O - 11,9 km/h (2 Bft)